Location: St. Louis
(38.6270°N, 90.1994°W)
Time: 23:34:18
(UTC-06:00)

NOAA 19 - Visible Passes

Search period start: 24 January 2022 00:00
Search period end: 03 February 2022 00:00
Orbit: 841 x 860 km, 99.2° (Epoch: 24 January)

Date Brightness Start Highest point End Pass type
(mag) Time Alt. Az. Time Alt. Az. Time Alt. Az.
24 Jan 8.5 06:19:51 10° ENE 06:21:48 12° E 06:23:45 10° ESE visible
24 Jan 6.3 17:43:29 10° ESE 17:47:39 22° ENE 17:51:50 10° NNE visible
24 Jan 6.1 19:22:34 10° S 19:27:54 49° W 19:33:18 10° NNW visible
25 Jan 5.6 19:10:35 10° S 19:16:04 63° WSW 19:21:35 10° NNW visible
26 Jan 5.3 18:58:41 10° SSE 19:04:14 81° WSW 19:09:49 10° NNW visible
27 Jan 5.1 18:46:53 10° SSE 18:52:26 80° ENE 18:58:00 10° NNW visible
27 Jan 8.2 20:31:33 10° WSW 20:33:39 12° W 20:35:45 10° WNW visible
28 Jan 5.2 18:35:11 10° SSE 18:40:38 63° ENE 18:46:08 10° N visible
28 Jan 7.9 20:18:21 10° SW 20:21:41 16° W 20:25:01 10° NW visible
29 Jan 5.4 18:23:34 10° SE 18:28:52 49° ENE 18:34:12 10° N visible
29 Jan 7.6 20:05:39 10° SW 20:09:44 21° W 20:13:51 10° NW visible
30 Jan 5.7 18:12:02 10° SE 18:17:08 39° ENE 18:22:14 10° N visible
30 Jan 7.2 19:53:12 10° SSW 19:57:49 27° W 20:02:28 10° NW visible
31 Jan 8.2 06:36:20 10° NE 06:39:55 18° E 06:43:29 10° SE visible
31 Jan 5.9 18:00:37 10° SE 18:05:24 31° ENE 18:10:11 10° N visible
31 Jan 6.8 19:40:55 10° SSW 19:45:55 34° W 19:50:57 10° NNW visible
01 Feb 8.4 06:25:24 10° ENE 06:27:57 13° E 06:30:30 10° ESE visible
01 Feb 6.2 17:49:19 10° ESE 17:53:42 24° ENE 17:58:04 10° NNE visible
01 Feb 6.3 19:28:46 10° S 19:34:02 44° W 19:39:19 10° NNW visible
02 Feb 5.8 19:16:44 10° S 19:22:10 57° WSW 19:27:39 10° NNW visible
